Regional Weather Roundup
Issued by NWS

Home | Current Version | Previous Version | Text Only | Print | Product List | Glossary Off
Versions: 1 2 3 4 5 6 7 8 9 10 11 12 13 14 15 16 17 18 19 20 21 22 23 24 25 26 27 28 29 30 31 32 33 34 35 36 37 38 39 40 41 42 43 44 45 46 47 48 49 50

688
ASUS43 KIND 271959
RWRIN

WEATHER ROUNDUP FOR INDIANA
NATIONAL WEATHER SERVICE INDIANAPOLIS IN
400 PM EDT SAT AUG 27 2016

NOTE: "FAIR" INDICATES FEW OR NO CLOUDS BELOW 12,000 FEET WITH NO
SIGNIFICANT WEATHER AND/OR OBSTRUCTIONS TO VISIBILITY.

* - STATION DOES NOT REPORT WEATHER SUCH AS PRECIPITATION OR FOG.

+ - STATION NOT QUALITY CONTROLLED BY THE NATIONAL WEATHER SERVICE.
    USE DATA WITH CAUTION...ESPECIALLY DEWPOINT AND RELATIVE
    HUMIDITY OBSERVATIONS.

INZ001>003-010>013-019-020-272100-
NORTHWEST INDIANA

CITY           SKY/WX    TMP DP  RH WIND       PRES   REMARKS
GARY /AIRPORT/ PTSUNNY   84  72  65 S8        30.03F
KNOX *+        PTSUNNY   82  50  32 SW9       30.05S
MONTICELLO +   MOSUNNY   83  69  63 S5        30.05F

$$

LMZ046-743>745-272100-
SOUTHERN LAKE MICHIGAN

STATION/POSITION TIME  TEMP    WIND        PRES    WAVE
                       AIR SEA DIR/SP/G            HT
                 (UTC) (F)     (DEG/KT/KT) (MB)    (FT)
BURNS HARBOR     1909   80     200/ 11/ 15 1017.6S
MICHIGAN CITY    1900   79     150/ 13/ 16   N/A
5NW MICH CITY    1900   78 76  200/  4/  6   N/A     1

$$

INZ004-005-014>016-021>024-272100-
NORTH CENTRAL INDIANA

CITY           SKY/WX    TMP DP  RH WIND       PRES   REMARKS
GOSHEN         MOSUNNY   83  71  67 S8        30.06F
PERU/GRISSOM   PTSUNNY   83  71  67 S9        30.07F
SOUTH BEND     MOSUNNY   81  72  74 S12       30.06F

$$

INZ006>009-017-018-025>027-272100-
NORTHEAST INDIANA

CITY           SKY/WX    TMP DP  RH WIND       PRES   REMARKS
ANGOLA *+      SUNNY     79  73  83 S7        30.08F
FORT WAYNE     CLOUDY    79  70  74 S7        30.08F

$$

INZ028-029-035-036-043>045-051>053-272100-
WEST CENTRAL INDIANA

CITY           SKY/WX    TMP DP  RH WIND       PRES   REMARKS
CRAWFORDSVL +  SUNNY     83  73  72 S8        30.08S
LAFAYETTE      MOSUNNY   83  72  69 S7        30.05F
TERRE HAUTE    SUNNY     86  72  62 SE8       30.07F

$$

INZ030>032-037>040-046>048-054>057-064-065-272100-
CENTRAL INDIANA

CITY           SKY/WX    TMP DP  RH WIND       PRES   REMARKS
COLUMBUS       MOSUNNY   81  75  83 SE6       30.10F
INDIANAPOLIS   MOSUNNY   80  71  74 S5        30.09F
-EAGLE CREEK   MOSUNNY   80  70  71 S5        30.08F
KOKOMO *+      CLOUDY    81  73  78 S10       30.08S
MT COMFORT *+  CLOUDY    77  72  83 S5        30.10F
SHELBYVILLE    SUNNY     82  70  66 CALM      30.09F

$$

INZ033-034-041-042-049-050-058-059-272100-
EAST CENTRAL INDIANA

CITY           SKY/WX    TMP DP  RH WIND       PRES   REMARKS
MUNCIE         CLOUDY    77  73  87 SE5       30.10S

$$

INZ060-061-067>069-081>083-085>088-272100-
SOUTHWEST INDIANA

CITY           SKY/WX    TMP DP  RH WIND       PRES   REMARKS
EVANSVILLE     MOSUNNY   87  72  60 S8        30.06F
HUNTINGBURG *+ SUNNY     90  72  55 SW3       30.07F HX  96

$$

INZ062-063-066-070>080-084-089>092-272100-
SOUTH CENTRAL AND SOUTHEAST INDIANA

CITY           SKY/WX    TMP DP  RH WIND       PRES   REMARKS
BLOOMINGTON    SUNNY     84  71  65 CALM      30.09F
MADISON *+     MOSUNNY   84  70  61 NE5       30.12F

$$





USA.gov is the U.S. government's official web portal to all federal, state and local government web resources and services.